Kenosha, WI

12:43 AM CST on February 07, 2016 (GMT -0600)
Kenosha Regional

Weather History for KENW - September, 2013

Change the Weather History Date:

Sunday, September 1, 2013

  Actual Average Record
Temperature  
Mean Temperature 70 °F -  
Max Temperature 86 °F 75 °F 100 °F (1953)
Min Temperature 57 °F 57 °F 47 °F (1967)
Cooling Degree Days 6    
Growing Degree Days 20 (Base 50)    
Moisture  
Dew Point 63 °F    
Average Humidity 85    
Maximum Humidity 100    
Minimum Humidity 57    
Precipitation  
Precipitation 0.04 in - - ()
Sea Level Pressure  
Sea Level Pressure 29.79 in    
Wind  
Wind Speed 3 mph (WNW)    
Max Wind Speed 14 mph    
Max Gust Speed 22 mph    
Visibility 5 miles    
Events Fog , Rain , Thunderstorm    
Averages and records for this station are not official NWS values.
T = Trace of Precipitation, MM = Missing Value Source: NWS Daily Summary

Daily Weather History Graph

Daily Weather History Graph

Search for Another Location

Airport or City:

Trip Planner

Search our weather history database for the weather conditions in past years. The results will help you decide how hot, cold, wet, or windy it might be!

Date:

Astronomy

Sep. 01, 2013 Rise Set
Actual Time 6:16 AM CDT 7:25 PM CDT
Civil Twilight 5:47 AM CDT 7:54 PM CDT
Nautical Twilight 5:13 AM CDT 8:29 PM CDT
Astronomical Twilight 4:36 AM CDT 9:05 PM CDT
Moon 2:35 AM CDT (9/1) 5:05 PM CDT (9/1)
Length of Visible Light 14h 06m
Length of Day
13h 08m
Waning Crescent, 13% of the Moon is Illuminated
Sep 1
Waning Crescent
Sep 5
New
Sep 12
First Quarter
Sep 19
Full
Sep 26
Last Quarter

Hourly Weather History & Observations

Time (CDT) Temp. Heat Index Dew Point Humidity Pressure Visibility Wind Dir Wind Speed Gust Speed Precip Events Conditions
12:23 AM 60.8 °F - 59.0 °F 94% 29.83 in 0.2 mi Calm Calm - N/A Fog Fog
12:53 AM 59.0 °F - 59.0 °F 100% 29.82 in 0.2 mi Calm Calm - N/A Fog Fog
1:03 AM 60.8 °F - 59.0 °F 94% 29.82 in 0.2 mi Calm Calm - N/A Fog Fog
1:28 AM 60.8 °F - 60.8 °F 100% 29.82 in 0.2 mi Calm Calm - N/A Fog Fog
1:37 AM 60.8 °F - 59.0 °F 94% 29.81 in 1.2 mi Calm Calm - N/A   Partly Cloudy
1:53 AM 61.0 °F - 60.1 °F 97% 29.81 in 0.8 mi Calm Calm - N/A   Clear
2:02 AM 60.8 °F - 57.2 °F 88% 29.82 in 0.2 mi NNW 3.5 mph - N/A Fog Fog
2:09 AM 60.8 °F - 59.0 °F 94% 29.81 in 1.0 mi Calm Calm - N/A   Clear
2:36 AM 62.6 °F - 60.8 °F 94% 29.83 in 0.5 mi NW 4.6 mph - N/A Fog Fog
2:53 AM 63.0 °F - 62.1 °F 97% 29.81 in 0.2 mi NW 4.6 mph - N/A Fog Fog
3:53 AM 61.0 °F - 61.0 °F 100% 29.79 in 0.2 mi WNW 3.5 mph - N/A Fog Fog
4:53 AM 59.0 °F - 57.9 °F 96% 29.79 in 0.2 mi Calm Calm - N/A Fog Fog
5:10 AM 59.0 °F - 57.2 °F 94% 29.80 in 0.2 mi Calm Calm - N/A Fog Fog
5:17 AM 57.2 °F - 57.2 °F 100% 29.79 in 0.2 mi WNW 3.5 mph - N/A Fog Fog
5:53 AM 57.9 °F - 57.0 °F 97% 29.78 in 0.2 mi Calm Calm - N/A Fog Fog
6:06 AM 57.2 °F - 57.2 °F 100% 29.78 in 1.0 mi WSW 4.6 mph - N/A   Mist
6:09 AM 57.2 °F - 55.4 °F 94% 29.78 in 0.2 mi WSW 3.5 mph - N/A Fog Fog
6:18 AM 57.2 °F - 57.2 °F 100% 29.78 in 0.2 mi WSW 3.5 mph - N/A Fog Fog
6:26 AM 57.2 °F - 57.2 °F 100% 29.79 in 0.2 mi West 4.6 mph - N/A Fog Fog
6:42 AM 60.8 °F - 59.0 °F 94% 29.80 in 1.2 mi WNW 6.9 mph - N/A   Scattered Clouds
6:45 AM 60.8 °F - 59.0 °F 94% 29.80 in 3.0 mi WNW 5.8 mph - N/A   Scattered Clouds
6:53 AM 61.0 °F - 60.1 °F 97% 29.79 in 2.0 mi WNW 4.6 mph - N/A   Partly Cloudy
7:49 AM 62.6 °F - 62.6 °F 100% 29.79 in 0.2 mi Calm Calm - N/A Fog Fog
7:53 AM 63.0 °F - 62.1 °F 97% 29.78 in 0.2 mi West 3.5 mph - N/A Fog Fog
8:53 AM 66.0 °F - 64.9 °F 96% 29.79 in 0.2 mi WNW 5.8 mph - N/A Fog Fog
9:53 AM 69.1 °F - 68.0 °F 96% 29.82 in 4.0 mi West 9.2 mph - N/A   Overcast
10:11 AM 73.4 °F - 66.2 °F 78% 29.82 in 9.0 mi WNW 9.2 mph - N/A   Mostly Cloudy
10:18 AM 75.2 °F - 66.2 °F 73% 29.81 in 10.0 mi NW 8.1 mph - N/A   Partly Cloudy
10:53 AM 75.9 °F - 64.9 °F 69% 29.80 in 10.0 mi West 8.1 mph - N/A   Clear
11:53 AM 79.0 °F - 66.9 °F 66% 29.78 in 10.0 mi West 8.1 mph - N/A   Clear
12:53 PM 82.0 °F 84.5 °F 66.9 °F 60% 29.77 in 10.0 mi West 8.1 mph - N/A   Scattered Clouds
1:23 PM 82.4 °F 84.6 °F 66.2 °F 58% 29.77 in 10.0 mi WSW 8.1 mph - N/A   Mostly Cloudy
1:48 PM 82.4 °F 84.6 °F 66.2 °F 58% 29.77 in 10.0 mi West 5.8 mph - N/A   Scattered Clouds
1:53 PM 82.9 °F 85.4 °F 66.9 °F 58% 29.76 in 10.0 mi Variable 3.5 mph - N/A   Scattered Clouds
2:53 PM 84.0 °F 87.0 °F 68.0 °F 58% 29.74 in 10.0 mi Variable 5.8 mph - N/A   Mostly Cloudy
3:53 PM 84.9 °F 88.2 °F 68.0 °F 57% 29.73 in 10.0 mi West 9.2 mph - N/A   Mostly Cloudy
4:53 PM 84.0 °F 87.0 °F 68.0 °F 58% 29.72 in 10.0 mi WSW 9.2 mph - N/A   Partly Cloudy
5:53 PM 82.0 °F 85.9 °F 70.0 °F 67% 29.73 in 9.0 mi Calm Calm - N/A   Mostly Cloudy
6:53 PM 79.0 °F - 71.1 °F 77% 29.73 in 7.0 mi West 3.5 mph - N/A   Mostly Cloudy
7:15 PM 78.8 °F - 68.0 °F 69% 29.74 in 8.0 mi NNW 13.8 mph 20.7 mph N/A Thunderstorm Thunderstorm
7:27 PM 73.4 °F - 66.2 °F 78% 29.76 in 3.0 mi NNW 9.2 mph 21.9 mph 0.01 in Rain , Thunderstorm Light Thunderstorms and Rain
7:40 PM 71.6 °F - 66.2 °F 83% 29.76 in 8.0 mi Variable 3.5 mph - 0.04 in Rain , Thunderstorm Light Thunderstorms and Rain
7:53 PM 70.0 °F - 66.9 °F 90% 29.77 in 8.0 mi NNE 8.1 mph - 0.04 in Thunderstorm Thunderstorm
8:45 PM 71.6 °F - 66.2 °F 83% 29.80 in 10.0 mi SSW 6.9 mph - N/A   Mostly Cloudy
8:53 PM 71.1 °F - 66.9 °F 87% 29.79 in 10.0 mi SW 4.6 mph - N/A   Mostly Cloudy
9:53 PM 70.0 °F - 64.9 °F 84% 29.80 in 10.0 mi NW 6.9 mph - N/A   Mostly Cloudy
10:53 PM 70.0 °F - 63.0 °F 78% 29.80 in 10.0 mi NNW 10.4 mph - N/A   Clear
11:53 PM 66.9 °F - 62.1 °F 84% 29.82 in 10.0 mi NW 3.5 mph - N/A   Clear